Location: Unspecified
(0.0000°N, 0.0000°E)
Time: 09:44:35
(UTC+00:00)

ARIANE 2 DEB - Pass Details

Date: 12 March 2026
Orbit: 561 x 35705 km, 7.7° (Epoch: 19 April)

Event Time Altitude Azimuth Distance (km) Brightness Sun altitude
Rises 23:13:58 0° 260° (W) 7,222 ? -75.6°
Reaches altitude 10° 23:16:50 10° 259° (W) 7,077 ? -76.3°
Enters shadow 23:40:10 65° 249° (WSW) 9,998 ? -81.8°
Exits shadow 00:49:03 87° 124° (SE) 22,376 ? -79.6°
Maximum altitude 01:55:10 89° 18° (NNE) 29,894 ? -63.5°
Drops below altitude 10° 09:18:48 10° 82° (E) 4,725 ? 47.2°
Sets 09:20:45 0° 85° (E) 5,128 ? 47.6°
